Flag for U.S.A. Weather past 2 weeks in Atlantic City, New Jersey, U.S.A.

Now
55 °F

Sunny.


Feels Like: 51 °F
Forecast: 48 / 56 °F
Wind: 16 mph from East

Location: Atlantic City International Airport

Current Time: Apr 19, 2015 at 10:30:51 AM

Latest Report: Apr 19, 2015 at 9:54 AM


Visibility: 10 mi

Pressure: 30.23 "Hg

Humidity: 55%

Dew point: 39 °F

Location of Atlantic CityLocation

Historic Weather in Atlantic City — Graph

°F

Atlantic City temperature yesterday

Maximum temperature yesterday: 73 °F (at 10:54 AM)
Minimum temperature yesterday: 53 °F (at 4:03 AM)
Average temperature yesterday: 64 °F

Past Weeks' High & Low Weather Summary

 TemperatureHumidityPressure
High73 °F (Apr 17, 3:54 PM)100% (Apr 10, 4:54 AM)30.46 "Hg (Apr 10, 4:54 AM)
Low30 °F (Apr 12, 5:54 AM)18% (Apr 5, 5:54 PM)29.79 "Hg (Apr 4, 8:54 AM)
Average54 °F65%30.16 "Hg
* Reported Apr 4 8:54 AM — Apr 19 8:54 AM, Atlantic City, Weather by CustomWeather, © 2015

Note: Actual official high and low records may vary slightly from our data, if they occured in-between our weather recording intervals... More about our weather records

Advertising

Atlantic City weather history for previous 24 hours

 ConditionsComfort  
Time TempWeatherWind HumidityBarometerVisibility
8:54 AM
Sun, Apr 19
54 °FSunny.14 mph57%30.22 "Hg10 mi
7:54 AM52 °FSunny.21 mph64%30.21 "Hg10 mi
6:54 AM51 °FClear.14 mph66%30.17 "Hg10 mi
5:54 AM53 °FClear.20 mph64%30.14 "Hg10 mi
4:54 AM55 °FClear.9 mph44%30.10 "Hg10 mi
3:54 AM56 °FClear.8 mph51%30.09 "Hg10 mi
2:54 AM55 °FClear.7 mph59%30.09 "Hg10 mi
1:54 AM57 °FClear.9 mph62%30.06 "Hg10 mi
12:54 AM60 °FClear.8 mph62%30.04 "Hg10 mi
11:54 PM
Sat, Apr 18
59 °FClear.8 mph64%30.03 "Hg10 mi
10:54 PM62 °FClear.5 mph56%29.98 "Hg10 mi
9:54 PM62 °FClear.8 mph58%29.97 "Hg10 mi
8:54 PM63 °FClear.No wind54%29.96 "Hg10 mi
7:54 PM65 °FSunny.7 mph52%29.95 "Hg10 mi
6:54 PM68 °FSunny.8 mph45%29.93 "Hg10 mi
5:54 PM71 °FSunny.12 mph38%29.93 "Hg10 mi
4:54 PM72 °FSunny.10 mph38%29.93 "Hg10 mi
3:54 PM70 °FSunny.13 mph37%29.93 "Hg10 mi
2:54 PM70 °FSunny.12 mph39%29.95 "Hg10 mi
1:54 PM71 °FSunny.10 mph39%29.96 "Hg10 mi
12:54 PM72 °FSunny.9 mph40%29.98 "Hg10 mi
11:54 AM73 °FSunny.8 mph43%30.00 "Hg10 mi
10:54 AM73 °FSunny.7 mph37%30.00 "Hg10 mi
Weather by CustomWeather, © 2015

See weather overviewHow to use our weather pages